Regional Weather Roundup
Issued by NWS

Home | Current Version | Previous Version | Graphics & Text | Print | Product List | Glossary Off
Versions: 1 2 3 4 5 6 7 8 9 10 11 12 13 14 15 16 17 18 19 20 21 22 23 24 25 26 27 28 29 30 31 32 33 34 35 36 37 38 39 40 41 42 43 44 45 46 47 48 49 50

000
ASUS43 KMKX 310311
RWRWI

WISCONSIN REGIONAL WEATHER ROUNDUP
NATIONAL WEATHER SERVICE MILWAUKEE/SULLIVAN WI
1000 PM CDT THU OCT 30 2014

NOTE: "FAIR" INDICATES FEW OR NO CLOUDS BELOW 12,000 FEET WITH NO
SIGNIFICANT WEATHER AND/OR OBSTRUCTIONS TO VISIBILITY.

WIZ001-002-006>008-014>016-023>028-310400-
NORTHWEST WISCONSIN

CITY           SKY/WX    TMP DP  RH WIND       PRES   REMARKS
SUPERIOR ARPT  PTCLDY    31  21  67 N18G30    30.29R WCI  19
ASHLAND        LGT SNOW  32  28  85 NW15G28   30.22R FOG     WCI  22
HAYWARD        CLOUDY    32  22  66 N13G20    30.22R WCI  22
SIREN          PTCLDY    32  15  50 N15       30.28R WCI  22
CUMBERLAND     CLOUDY    32  18  55 N23G31    30.23R WCI  19
RICE LAKE      CLOUDY    34  18  52 N26G33    30.24R WCI  21
CHETEK         CLOUDY    35  23  60 NW10G25   30.22R WCI  28
LADYSMITH      CLOUDY    34  28  80 NW15G23   30.18R WCI  24
EAU CLAIRE     CLOUDY    36  27  69 NW14G22   30.19R WCI  27
MENOMONIE      CLOUDY    37  24  60 NW17G32   30.22R WCI  27
NEW RICHMOND   MOCLDY    35  20  55 N18G31    30.27R WCI  24
OSCEOLA        CLEAR     35  18  51 NW16G28   30.31R WCI  25
$$

WIZ003>005-009-010-017-018-310400-
NORTH CENTRAL WISCONSIN

CITY           SKY/WX    TMP DP  RH WIND       PRES   REMARKS
MANITOWISH WTR LGT SNOW  32  32 100 NW13G21   30.06R VSB 3/4 WCI  22
ARBOR VITAE    FLURRIES  34  32  91 N12       30.06R WCI  25
WOODRUFF       FLURRIES  34  32  91 N12       30.06R WCI  25
RHINELANDER    CLOUDY    34  29  82 NW13G18   30.05R WCI  25
EAGLE RIVER    CLOUDY    33  32  96 NW9       30.03S WCI  25
LAND O LAKES   LGT SNOW  33  32  95 N7G17     30.03S WCI  27
PHILLIPS       CLOUDY    32  28  86 NW8G18    30.10R WCI  25
TOMAHAWK       CLOUDY    35  31  85 NW9G22    30.07R WCI  27
MEDFORD        RAIN      35  31  84 N17G24    30.08R WCI  25
MERRILL        CLOUDY    36  32  86 NW12      30.06R WCI  28
$$

WIZ029-030-035-036-043>047-310400-
CENTRAL WISCONSIN

CITY           SKY/WX    TMP DP  RH WIND       PRES   REMARKS
WAUSAU         CLOUDY    40  30  67 NW14      30.05R WCI  32
MOSINEE        MOCLDY    39  32  75 NW13      30.06S WCI  32
MARSHFIELD     CLOUDY    37  33  85 NW15      30.09R WCI  28
STEVENS POINT  PTCLDY    39  30  69 NW7       30.06S WCI  34
WAUPACA        CLOUDY    45  33  64 NW13      30.05S
WAUTOMA        MOCLDY    44  32  63 NW12      30.07R
WISC RAPIDS    CLOUDY    42  32  67 NW16G22   30.09R
CAMP DOUGLAS   CLOUDY    43  34  70 NW13G20   30.11R
$$

WIZ011>013-019>022-031-037>040-048>050-310400-
NORTHEAST WISCONSIN

CITY           SKY/WX    TMP DP  RH WIND       PRES   REMARKS
ANTIGO         CLOUDY    37  31  79 NW15      30.02S WCI  28
SHAWANO        MOCLDY    44  32  63 NW9       30.03S
OCONTO         CLOUDY    42  32  68 NW6       30.01R
STURGEON BAY   CLOUDY    43  30  61 NW10      30.00R
GREEN BAY      CLOUDY    44  34  67 NW12      30.02R
MANITOWOC      CLOUDY    46  35  65 NW13G18   30.00S
APPLETON       MOCLDY    43  30  61 NW13      30.03R
CLINTONVILLE   CLOUDY    43  32  65 NW13      30.03S
OSHKOSH        CLOUDY    45  34  65 NW12      30.03R
$$

WIZ032>034-041-042-053>061-310400-
SOUTHWEST WISCONSIN

CITY           SKY/WX    TMP DP  RH WIND       PRES   REMARKS
LA CROSSE      CLOUDY    46  31  55 N15       30.15R
SPARTA         CLOUDY    42  30  61 NW10G16   30.14R
VIROQUA        CLOUDY    42  32  67 N20G29    30.12R
BOSCOBEL       CLOUDY    48  37  65 NW8       30.12R
PRAIRIE DU CHI CLOUDY    47  37  67 NW9       30.13R
PLATTEVILLE    CLOUDY    46  39  78 NW8       30.11R
$$

WIZ056-057-062-063-064-067-068-310400-
SOUTH CENTRAL WISCONSIN

CITY           SKY/WX    TMP DP  RH WIND       PRES   REMARKS
REEDSBURG      CLOUDY    44  36  72 N18G24    30.09R
BARABOO/DELLS  CLOUDY    45  34  65 NW12G18   30.08R
LONE ROCK      CLOUDY    50  36  58 W8        30.10R
MINERAL POINT  CLOUDY    45  37  76 NW7       30.08S
MADISON        LGT RAIN  46  37  71 NW7       30.06R
MIDDLETON      CLOUDY    46  37  68 NW9       30.07R
WATERTOWN      CLOUDY    44  38  79 W7        30.04S
MONROE         CLOUDY    45  37  76 W8        30.06S
JANESVILLE     CLOUDY    45  36  70 W5        30.05S
$$

WIZ051-052-058>065-066-070>072-310400-
SOUTHEAST WISCONSIN

CITY           SKY/WX    TMP DP  RH WIND       PRES   REMARKS
MILWAUKEE      CLOUDY    48  34  58 W7        30.03S
WAUKESHA       CLOUDY    43  34  70 W9        30.03S
MILWAUKEE/TIMM CLOUDY    46  34  61 W9        30.03S
RACINE         CLOUDY    47  35  63 W6        30.04S
BURLINGTON     CLOUDY    44  35  71 W5        30.04S
KENOSHA        CLOUDY    44  36  73 W6        30.04S
FOND DU LAC    CLOUDY    45  33  63 NW20G25   30.03R
SHEBOYGAN      CLOUDY    46  34  62 NW13      30.01R
WEST BEND      CLOUDY    45  34  65 NW10      30.02R
JUNEAU         DRIZZLE   45  37  73 W6        30.04S
$$

LSZ147-162-310400-
LAKE SUPERIOR

STATION/POSITION TIME  TEMP    WIND        PRES    WAVE
                       AIR SEA DIR/SP/G            HT/PER
                 (UTC) (F)     (DEG/KT/KT) (MB)    (FT/S)
W MID LAKE BUOY  0250   37 45  350/ 31/ 37 1020.8R   7/ 6
DEVILS ISLAND    0300   34     360/ 32/ 36 1024.3R
PORT WING        0200   36     340/ 28/ 34 1023.7R
SAXON HARBOR     0213   37     330/ 24/ 35 1020.3R
$$

LMZ867-665-643>646-310400-
LAKE MICHIGAN

STATION/POSITION TIME  TEMP    WIND        PRES    WAVE
                       AIR SEA DIR/SP/G            HT/PER
                 (UTC) (F)     (DEG/KT/KT) (MB)    (FT/S)
CHAMBERS ISLAND  0200   44     300/ 10/ 14 1015.6F
N MID LAKE BUOY  0250   44 51  300/ 17/ 21 1014.5F   3/ 4
NORTHPORT PIER   0200   44     300/ 15/ 19 1015.2F
KEWAUNEE LAKESHO 0100                      1015.1F
SHEBOYGAN LAKESH 0300   47 50  310/ 12/ 16 1016.7R
PORT WASHINGTON  0240   48     260/  6/  9 1016.9S
ATWATER BUOY     0300   49     270/ 10/ 14 1017.6F
MILWAUKEE LAKESH 0200   49     270/  8/ 10   N/A
S MID LAKE BUOY  0250   50 53  280/ 12/ 16 1016.8F   1/ 3
KENOSHA   LAKESH 0300   48     260/  8/ 11 1016.9S
$$

TC  - TEMPERATURE IN CELSIUS
VSB - VISIBILITY IN STATUTE MILES
WCI - WIND CHILL INDEX
HX  - HEAT INDEX




USA.gov is the U.S. government's official web portal to all federal, state and local government web resources and services.